Location: Austin
(30.3000°N, 97.7500°W)
Time: 03:00:08
(UTC-05:00)

NOSS 3-4 (A) - Pass Details

Date: 01 October 2024
Orbit: 801 x 1411 km, 63.4° (Epoch: 19 September)

Event Time Altitude Azimuth Distance (km) Brightness Sun altitude
Rises 19:35:36 0° 330° (NNW) 3,916 7.1 -5.2°
Reaches altitude 10° 19:38:07 10° 331° (NNW) 3,038 6.5 -5.7°
Maximum altitude 19:45:33 88° 242° (WSW) 1,270 4.2 -7.3°
Drops below altitude 10° 19:53:58 10° 154° (SSE) 3,418 6.1 -9.1°
Sets 19:56:57 0° 154° (SSE) 4,429 6.6 -9.8°
